Retour au catalogue

FALCON 9 R/B

ActifHEO
NORAD 57210·ROCKET BODY·🇺🇸 United States

Lancé Jul 1, 2023 depuis Cape Canaveral Space Force Station

Loading…

Prochains Passages (prochaines 24 heures)

TLE

PériméSource: Space-Track

Époque: Jul 1, 2023, 15:38 UTC

1 57210U 23092B   23182.65149054 -.00000361  00000-0  00000-0 0  9992
2 57210  28.2806 318.0655 8005778 123.3330 359.7928  1.26565515    00

Suivez FALCON 9 R/B en temps réel avec AllMySat

Download on the App Store